Hourly Weather Darwin

Today, 19 September, Saturday

Time Temperature Precipitation Wind Pressure Humidity
00:00 +27°C° 0.1 mm 1 mps 758 mmHg 83%
01:00 +27°C° 0.2 mm 1 mps 758 mmHg 84%
02:00 +27°C° 0.2 mm 1 mps 758 mmHg 86%
03:00 +27°C° 0 mm 1 mps 757 mmHg 90%
04:00 +27°C° 0.8 mm 1 mps 758 mmHg 89%
05:00 +27°C° 0.8 mm 1 mps 758 mmHg 88%
06:00 +27°C° 0.8 mm 2 mps 758 mmHg 87%
07:00 +29°C° 0.4 mm 2 mps 759 mmHg 78%
08:00 +31°C° 0.4 mm 3 mps 759 mmHg 69%
09:00 +34°C° 0 mm 4 mps 760 mmHg 59%
10:00 +35°C° 0.1 mm 4 mps 759 mmHg 55%
11:00 +36°C° 0.1 mm 4 mps 758 mmHg 52%
12:00 +37°C° 0.1 mm 4 mps 758 mmHg 48%
13:00 +36°C° 0.5 mm 4 mps 757 mmHg 52%
14:00 +35°C° 0.5 mm 4 mps 756 mmHg 56%
15:00 +34°C° 0.5 mm 4 mps 756 mmHg 60%
16:00 +34°C° 0.7 mm 4 mps 756 mmHg 63%
17:00 +33°C° 0.7 mm 3 mps 756 mmHg 66%
18:00 +31°C° 0.7 mm 2 mps 756 mmHg 69%
19:00 +30°C° 0 mm 2 mps 757 mmHg 72%
20:00 +30°C° 0 mm 2 mps 757 mmHg 74%
21:00 +29°C° 0 mm 1 mps 758 mmHg 77%
22:00 +29°C° 0 mm 2 mps 758 mmHg 79%
23:00 +29°C° 0 mm 2 mps 758 mmHg 81%

Tomorrow, 20 September, Sunday

Time Temperature Precipitation Wind Pressure Humidity
00:00 +29°C° 0 mm 2 mps 758 mmHg 84%
01:00 +28°C° 0.1 mm 2 mps 758 mmHg 85%
02:00 +28°C° 0.1 mm 2 mps 758 mmHg 86%
03:00 +28°C° 0.1 mm 1 mps 757 mmHg 87%
04:00 +28°C° 0 mm 2 mps 758 mmHg 88%
05:00 +27°C° 0 mm 2 mps 758 mmHg 88%
06:00 +27°C° 0 mm 2 mps 758 mmHg 89%
07:00 +29°C° 0 mm 3 mps 758 mmHg 80%
08:00 +30°C° 0 mm 3 mps 759 mmHg 72%
09:00 +33°C° 0 mm 3 mps 760 mmHg 63%
10:00 +34°C° 0.1 mm 3 mps 759 mmHg 59%
11:00 +35°C° 0.1 mm 2 mps 758 mmHg 55%
12:00 +36°C° 0.1 mm 2 mps 757 mmHg 51%
13:00 +35°C° 0.3 mm 2 mps 757 mmHg 55%
14:00 +34°C° 0.3 mm 3 mps 756 mmHg 59%
15:00 +34°C° 0.3 mm 4 mps 756 mmHg 63%
16:00 +33°C° 0 mm 3 mps 756 mmHg 65%
17:00 +31°C° 0 mm 3 mps 756 mmHg 68%
18:00 +31°C° 0 mm 3 mps 756 mmHg 71%
19:00 +30°C° 0 mm 2 mps 756 mmHg 74%
20:00 +30°C° 0 mm 2 mps 757 mmHg 77%
21:00 +29°C° 0 mm 1 mps 757 mmHg 80%
22:00 +29°C° 0 mm 2 mps 757 mmHg 82%
23:00 +29°C° 0 mm 2 mps 758 mmHg 83%

Day after tomorrow, 21 September, Monday

Time Temperature Precipitation Wind Pressure Humidity
00:00 +29°C° 0 mm 3 mps 758 mmHg 85%
01:00 +28°C° 0 mm 3 mps 757 mmHg 85%
02:00 +28°C° 0 mm 3 mps 757 mmHg 85%
03:00 +28°C° 0 mm 2 mps 757 mmHg 85%
04:00 +28°C° 0 mm 2 mps 757 mmHg 86%
05:00 +28°C° 0 mm 2 mps 757 mmHg 86%
06:00 +28°C° 0 mm 2 mps 758 mmHg 87%
07:00 +29°C° 0 mm 2 mps 758 mmHg 79%
08:00 +31°C° 0 mm 2 mps 758 mmHg 71%
09:00 +34°C° 0 mm 2 mps 759 mmHg 63%
10:00 +35°C° 0 mm 2 mps 758 mmHg 54%
11:00 +37°C° 0 mm 2 mps 758 mmHg 46%
12:00 +39°C° 0 mm 2 mps 757 mmHg 38%
13:00 +38°C° 0 mm 3 mps 756 mmHg 41%
14:00 +37°C° 0 mm 4 mps 755 mmHg 44%
15:00 +37°C° 0 mm 5 mps 755 mmHg 46%
16:00 +36°C° 0 mm 5 mps 755 mmHg 49%
17:00 +35°C° 0 mm 4 mps 755 mmHg 52%
18:00 +34°C° 0 mm 3 mps 755 mmHg 55%
19:00 +33°C° 0 mm 3 mps 756 mmHg 61%
20:00 +32°C° 0 mm 4 mps 757 mmHg 67%
21:00 +30°C° 0 mm 4 mps 757 mmHg 72%
22:00 +30°C° 0 mm 4 mps 757 mmHg 75%
23:00 +30°C° 0 mm 3 mps 758 mmHg 78%

22 September, Tuesday

Time Temperature Precipitation Wind Pressure Humidity
00:00 +29°C° 0 mm 2 mps 758 mmHg 81%
01:00 +29°C° 0 mm 2 mps 757 mmHg 82%
02:00 +29°C° 0 mm 1 mps 757 mmHg 83%
03:00 +28°C° 0 mm 1 mps 757 mmHg 83%
04:00 +28°C° 0 mm 1 mps 757 mmHg 84%
05:00 +28°C° 0 mm 1 mps 758 mmHg 85%
06:00 +27°C° 0 mm 2 mps 758 mmHg 86%
07:00 +29°C° 0 mm 2 mps 759 mmHg 76%
08:00 +31°C° 0 mm 2 mps 759 mmHg 67%
09:00 +34°C° 0 mm 2 mps 759 mmHg 57%
10:00 +36°C° 0 mm 2 mps 759 mmHg 49%
11:00 +38°C° 0 mm 3 mps 758 mmHg 42%
12:00 +39°C° 0 mm 3 mps 758 mmHg 34%
13:00 +40°C° 0 mm 4 mps 757 mmHg 36%
14:00 +39°C° 0 mm 5 mps 756 mmHg 38%
15:00 +37°C° 0 mm 5 mps 756 mmHg 40%
16:00 +36°C° 0 mm 5 mps 756 mmHg 45%
17:00 +35°C° 0 mm 4 mps 756 mmHg 49%
18:00 +33°C° 0 mm 3 mps 756 mmHg 54%
19:00 +33°C° 0 mm 3 mps 757 mmHg 58%
20:00 +31°C° 0 mm 3 mps 757 mmHg 63%
21:00 +30°C° 0 mm 3 mps 758 mmHg 68%
22:00 +30°C° 0 mm 3 mps 758 mmHg 70%
23:00 +29°C° 0 mm 3 mps 758 mmHg 73%

23 September, Wednesday

Time Temperature Precipitation Wind Pressure Humidity
00:00 +29°C° 0 mm 3 mps 758 mmHg 76%
01:00 +29°C° 0 mm 3 mps 758 mmHg 77%
02:00 +28°C° 0 mm 3 mps 758 mmHg 78%
03:00 +28°C° 0 mm 3 mps 758 mmHg 79%
04:00 +28°C° 0 mm 3 mps 758 mmHg 80%
05:00 +27°C° 0 mm 3 mps 758 mmHg 81%
06:00 +27°C° 0 mm 2 mps 759 mmHg 82%
07:00 +29°C° 0 mm 2 mps 759 mmHg 73%
08:00 +31°C° 0 mm 2 mps 760 mmHg 65%
09:00 +34°C° 0 mm 2 mps 760 mmHg 56%
10:00 +36°C° 0 mm 3 mps 760 mmHg 48%
11:00 +38°C° 0 mm 4 mps 759 mmHg 40%
12:00 +41°C° 0 mm 5 mps 759 mmHg 32%
13:00 +40°C° 0 mm 5 mps 758 mmHg 35%
14:00 +39°C° 0 mm 5 mps 757 mmHg 38%
15:00 +38°C° 0 mm 6 mps 756 mmHg 40%
16:00 +36°C° 0 mm 5 mps 757 mmHg 44%
17:00 +35°C° 0 mm 5 mps 757 mmHg 48%
18:00 +34°C° 0 mm 5 mps 757 mmHg 52%
19:00 +33°C° 0.8 mm 4 mps 758 mmHg 59%
20:00 +30°C° 0.8 mm 4 mps 758 mmHg 66%
21:00 +29°C° 0.8 mm 3 mps 759 mmHg 73%
22:00 +29°C° 0.5 mm 3 mps 759 mmHg 75%
23:00 +29°C° 0.5 mm 2 mps 759 mmHg 77%

24 September, Thursday

Time Temperature Precipitation Wind Pressure Humidity
00:00 +29°C° 0.5 mm 2 mps 759 mmHg 79%
01:00 +28°C° 0 mm 2 mps 758 mmHg 80%
02:00 +28°C° 0 mm 2 mps 758 mmHg 80%
03:00 +28°C° 0 mm 2 mps 758 mmHg 81%
04:00 +28°C° 0 mm 2 mps 758 mmHg 82%
05:00 +27°C° 0 mm 2 mps 758 mmHg 84%
06:00 +27°C° 0 mm 2 mps 758 mmHg 85%
07:00 +29°C° 0 mm 2 mps 759 mmHg 76%
08:00 +31°C° 0 mm 2 mps 759 mmHg 67%
09:00 +32°C° 0 mm 2 mps 760 mmHg 58%
10:00 +35°C° 0 mm 2 mps 759 mmHg 49%
11:00 +37°C° 0 mm 3 mps 759 mmHg 40%
12:00 +39°C° 0 mm 3 mps 758 mmHg 32%
13:00 +39°C° 0 mm 3 mps 757 mmHg 33%
14:00 +39°C° 0 mm 3 mps 757 mmHg 34%
15:00 +40°C° 0 mm 4 mps 756 mmHg 34%
16:00 +37°C° 0 mm 4 mps 756 mmHg 43%
17:00 +35°C° 0 mm 3 mps 756 mmHg 52%
18:00 +33°C° 0 mm 3 mps 757 mmHg 60%
19:00 +31°C° 0 mm 3 mps 757 mmHg 63%
20:00 +31°C° 0 mm 3 mps 758 mmHg 66%
21:00 +31°C° 0 mm 3 mps 759 mmHg 69%
22:00 +30°C° 0.5 mm 3 mps 759 mmHg 73%
23:00 +29°C° 0.5 mm 3 mps 759 mmHg 76%
Show more